カタログに戻る

STARLINK-6326

運用中通信VLEO
NORAD 56787·PAYLOAD·🇺🇸 United States

打ち上げ May 31, 2023 から Vandenberg Space Force Base

Loading…

次のパス (今後24時間)

TLE

最新Source: CelesTrak SupGP

元期: Sep 14, 2026, 22:01 UTC

1 56787C 23078W   26257.91784722  .00696880  00000+0  57251-1 0  2579
2 56787  70.0011 207.2475 0003107 267.4063 337.8624 14.98747540    13

AllMySatでSTARLINK-6326をリアルタイム追跡

Download on the App Store